User: anonymous   Login
Location: *
(51.5000°N, 0.1100°W)
Time: 10:06:32
(UTC+00:00)
Language:

Cosmos 2322 - Orbit

View from above orbital plane
View from above orbital plane
View from above satellite
View from above satellite

Ground track
Ground track

The orbit data is extracted from the following two-line orbital elements,

1 23704U 95058A   24197.82795272  .00000252  00000-0  15845-3 0  9993
2 23704  70.9874  23.7657 0008241 150.2593 209.8999 14.13630607480990
Epoch (UTC): 15 July 2024 19:52:15
Eccentricity: 0.0008241
inclination: 70.9874°
perigee height: 841 km
apogee height: 853 km
right ascension of ascending node: 23.7657°
argument of perigee: 150.2593°
revolutions per day: 14.13630607
mean anomaly at epoch: 209.8999°
orbit number at epoch: 48099

The dashed part of the orbit path shows where the satellite is in the earth's shadow,  

DLR